QPF
0.00 0.00 0.01 0.00 0.00 0.00 0.00 0.00 0.00 0.01 0.00 0.00 0.00 0.00 0.01 0.04 0.00 0.00 0.00 0.00 0.00 0.01 0.01 0.00 0.01 0.00 0.00 0.00 0.00 0.00 0.00 0.00 0.01 0.10 0.21 0.24 0.12 0.05 0.01 0.00 0.01 0.00 0.00
0.00 0.00 0.00 0.00 0.00 0.00 0.00 0.00 0.00 0.01 0.00 0.00 0.01 0.00 0.00 0.00 0.00 0.00 0.00 0.00 0.00 0.01 0.01 0.03 0.02 0.00 0.00 0.00 0.00 0.00 0.00 0.00 0.02 0.12 0.17 0.46 0.46 0.36 0.29 0.13 0.02 0.03 0.01
0.00 0.00 0.00 0.01 0.01 0.01 0.00 0.00 0.00 0.01 0.00 0.01 0.02 0.01 0.00 0.00 0.00 0.00 0.00 0.00 0.02 0.01 0.02 0.04 0.02 0.00 0.00 0.00 0.01 0.00 0.00 0.00 0.01 0.08 0.12 0.15 0.14 0.16 0.27 0.34 0.27 0.11 0.01
0.00 0.00 0.04 0.10 0.07 0.03 0.00 0.11 0.06 0.00 0.00 0.00 0.02 0.02 0.01 0.01 0.00 0.00 0.00 0.05 0.08 0.05 0.08 0.05 0.01 0.00 0.00 0.00 0.01 0.00 0.00 0.00 0.00 0.04 0.07 0.05 0.07 0.19 0.26 0.27 0.43 0.41 0.07
0.01 0.00 0.01 0.19 0.24 0.05 0.01 0.08 0.32 0.16 0.09 0.02 0.05 0.07 0.03 0.02 0.01 0.04 0.08 0.07 0.09 0.09 0.09 0.06 0.02 0.00 0.00 0.00 0.00 0.00 0.00 0.01 0.02 0.02 0.00 0.01 0.09 0.20 0.16 0.27 0.57 1.17 0.25
0.01 0.00 0.01 0.05 0.19 0.03 0.04 0.05 0.19 0.24 0.14 0.05 0.08 0.10 0.14 0.06 0.03 0.05 0.14 0.11 0.07 0.08 0.05 0.02 0.02 0.00 0.00 0.00 0.00 0.00 0.03 0.00 0.00 0.00 0.00 0.00 0.02 0.11 0.06 0.25 0.66 0.69 0.07
0.00 0.00 0.00 0.03 0.12 0.08 0.11 0.08 0.05 0.29 0.24 0.12 0.10 0.12 0.09 0.03 0.07 0.11 0.08 0.03 0.04 0.01 0.01 0.01 0.00 0.00 0.00 0.00 0.00 0.01 0.08 0.06 0.11 0.01 0.00 0.00 0.00 0.06 0.16 0.17 0.33 0.18 0.08
0.04 0.02 0.10 0.17 0.36 0.62 0.40 0.28 0.11 0.11 0.16 0.07 0.08 0.08 0.10 0.04 0.11 0.16 0.08 0.01 0.01 0.00 0.00 0.00 0.00 0.00 0.00 0.00 0.00 0.07 0.23 0.21 0.25 0.10 0.01 0.00 0.00 0.00 0.05 0.16 0.14 0.16 0.16
0.03 0.22 0.17 0.14 0.12 0.54 0.83 0.44 0.15 0.12 0.09 0.01 0.01 0.00 0.04 0.09 0.19 0.20 0.10 0.01 0.00 0.00 0.00 0.00 0.00 0.00 0.00 0.00 0.00 0.00 0.03 0.14 0.25 0.11 0.01 0.00 0.00 0.00 0.01 0.14 0.12 0.19 0.21
0.01 0.02 0.09 0.19 0.29 0.13 0.15 0.32 0.21 0.05 0.07 0.00 0.04 0.01 0.12 0.16 0.19 0.18 0.09 0.00 0.00 0.00 0.00 0.00 0.00 0.00 0.00 0.00 0.00 0.01 0.00 0.03 0.13 0.02 0.00 0.00 0.00 0.00 0.06 0.05 0.09 0.12 0.18
0.00 0.00 0.02 0.01 0.07 0.04 0.10 0.14 0.19 0.16 0.16 0.05 0.03 0.04 0.10 0.05 0.10 0.19 0.07 0.00 0.00 0.00 0.00 0.00 0.00 0.00 0.00 0.00 0.00 0.00 0.00 0.00 0.00 0.00 0.00 0.00 0.00 0.00 0.02 0.01 0.05 0.02 0.07
0.00 0.00 0.00 0.00 0.04 0.00 0.04 0.15 0.15 0.18 0.27 0.24 0.07 0.07 0.00 0.00 0.01 0.07 0.02 0.00 0.00 0.00 0.00 0.00 0.00 0.00 0.00 0.00 0.00 0.00 0.00 0.00 0.00 0.00 0.00 0.00 0.00 0.00 0.00 0.00 0.00 0.00 0.02
0.00 0.00 0.00 0.00 0.00 0.00 0.00 0.05 0.14 0.09 0.12 0.02 0.01 0.00 0.00 0.00 0.00 0.00 0.00 0.00 0.00 0.00 0.00 0.00 0.00 0.00 0.00 0.00 0.00 0.00 0.00 0.00 0.00 0.00 0.00 0.00 0.00 0.01 0.00 0.00 0.00 0.01 0.03
0.00 0.00 0.00 0.00 0.00 0.00 0.00 0.03 0.10 0.06 0.02 0.00 0.00 0.00 0.00 0.00 0.00 0.00 0.00 0.00 0.00 0.00 0.00 0.00 0.00 0.00 0.00 0.00 0.00 0.00 0.00 0.00 0.00 0.00 0.00 0.00 0.01 0.01 0.00 0.00 0.00 0.00 0.06
0.00 0.00 0.00 0.00 0.00 0.00 0.00 0.00 0.03 0.02 0.00 0.00 0.00 0.00 0.00 0.00 0.00 0.00 0.00 0.00 0.00 0.00 0.00 0.00 0.00 0.00 0.00 0.00 0.00 0.00 0.00 0.00 0.00 0.00 0.00 0.00 0.00 0.00 0.00 0.00 0.00 0.00 0.03
0.00 0.00 0.00 0.03 0.01 0.00 0.00 0.00 0.00 0.00 0.00 0.00 0.00 0.00 0.00 0.00 0.00 0.00 0.00 0.00 0.00 0.00 0.00 0.00 0.00 0.00 0.00 0.00 0.00 0.00 0.00 0.00 0.00 0.00 0.00 0.00 0.00 0.00 0.00 0.00 0.00 0.00 0.00
0.00 0.00 0.00 0.11 0.02 0.02 0.06 0.00 0.00 0.00 0.00 0.00 0.00 0.00 0.00 0.00 0.00 0.00 0.00 0.00 0.00 0.00 0.00 0.00 0.00 0.00 0.00 0.00 0.00 0.00 0.00 0.00 0.00 0.00 0.00 0.00 0.00 0.00 0.00 0.00 0.00 0.00 0.00
0.00 0.01 0.07 0.09 0.02 0.12 0.05 0.00 0.00 0.00 0.00 0.00 0.00 0.00 0.00 0.00 0.00 0.00 0.00 0.00 0.00 0.00 0.00 0.00 0.00 0.00 0.00 0.00 0.00 0.00 0.00 0.00 0.00 0.00 0.00 0.00 0.00 0.00 0.00 0.00 0.00 0.00 0.00
0.00 0.00 0.01 0.08 0.08 0.14 0.00 0.00 0.00 0.00 0.00 0.01 0.00 0.00 0.00 0.00 0.00 0.00 0.00 0.00 0.00 0.00 0.00 0.00 0.00 0.00 0.00 0.00 0.00 0.00 0.01 0.00 0.00 0.00 0.00 0.00 0.00 0.00 0.00 0.00 0.00 0.00 0.00
0.00 0.00 0.01 0.06 0.05 0.01 0.00 0.00 0.00 0.00 0.00 0.00 0.00 0.00 0.01 0.01 0.01 0.00 0.00 0.00 0.00 0.00 0.00 0.00 0.00 0.00 0.00 0.00 0.00 0.00 0.00 0.00 0.00 0.00 0.00 0.00 0.00 0.00 0.00 0.00 0.00 0.00 0.00
0.00 0.00 0.00 0.01 0.00 0.00 0.00 0.00 0.00 0.00 0.00 0.00 0.00 0.02 0.00 0.00 0.00 0.00 0.00 0.00 0.00 0.00 0.01 0.02 0.00 0.00 0.00 0.00 0.00 0.00 0.00 0.00 0.00 0.00 0.00 0.00 0.00 0.00 0.00 0.00 0.00 0.00 0.00
0.00 0.00 0.00 0.00 0.00 0.00 0.00 0.00 0.00 0.00 0.00 0.00 0.00 0.00 0.00 0.00 0.00 0.00 0.00 0.00 0.00 0.00 0.00 0.01 0.04 0.01 0.00 0.00 0.00 0.00 0.00 0.00 0.00 0.00 0.00 0.00 0.01 0.00 0.00 0.00 0.00 0.00 0.00
0.00 0.00 0.00 0.00 0.00 0.00 0.00 0.00 0.00 0.00 0.00 0.00 0.00 0.00 0.00 0.00 0.00 0.00 0.00 0.00 0.00 0.00 0.00 0.04 0.04 0.00 0.01 0.00 0.00 0.00 0.00 0.00 0.00 0.00 0.00 0.00 0.02 0.00 0.00 0.00 0.00 0.00 0.00
0.00 0.00 0.00 0.00 0.00 0.00 0.00 0.00 0.00 0.00 0.00 0.00 0.00 0.00 0.00 0.00 0.00 0.00 0.00 0.00 0.00 0.00 0.00 0.01 0.05 0.02 0.00 0.00 0.00 0.00 0.00 0.00 0.00 0.00 0.00 0.00 0.00 0.00 0.00 0.00 0.00 0.00 0.00
0.00 0.00 0.00 0.00 0.00 0.00 0.00 0.00 0.00 0.00 0.00 0.00 0.00 0.00 0.00 0.00 0.00 0.00 0.00 0.00 0.00 0.00 0.00 0.00 0.04 0.01 0.00 0.00 0.00 0.01 0.00 0.00 0.00 0.00 0.00 0.00 0.00 0.00 0.00 0.00 0.00 0.00 0.00
0.00 0.00 0.00 0.00 0.00 0.00 0.00 0.00 0.00 0.00 0.00 0.00 0.00 0.00 0.00 0.00 0.00 0.00 0.00 0.00 0.00 0.00 0.00 0.03 0.01 0.00 0.00 0.00 0.00 0.00 0.00 0.00 0.00 0.00 0.02 0.07 0.07 0.02 0.00 0.00 0.00 0.00 0.01
MSLP
1013.70 1013.57 1013.72 1013.98 1014.20 1014.39 1014.60 1014.77 1014.84 1014.89 1015.04 1015.23 1015.46 1015.54 1015.72 1015.82 1015.98 1016.31 1016.65 1016.89 1017.14 1017.39 1017.63 1017.68 1017.88 1017.98 1018.12 1018.26 1018.30 1018.30 1018.29 1018.40 1018.59 1018.71 1019.22 1019.44 1019.67 1019.78 1019.63 1019.54 1019.71 1019.97 1020.19
1013.13 1013.43 1013.63 1013.91 1014.19 1014.44 1014.69 1014.98 1015.15 1015.26 1015.38 1015.53 1015.80 1015.86 1015.95 1016.03 1016.21 1016.56 1016.76 1017.08 1017.32 1017.56 1017.79 1017.80 1018.04 1018.19 1018.30 1018.30 1018.40 1018.53 1018.70 1018.71 1018.81 1019.02 1019.59 1020.19 1020.80 1020.61 1020.09 1020.00 1019.92 1020.12 1020.39
1013.03 1013.38 1013.69 1013.97 1014.24 1014.56 1014.76 1015.13 1015.40 1015.61 1015.73 1015.84 1015.98 1016.12 1016.22 1016.40 1016.39 1016.74 1017.00 1017.34 1017.48 1017.75 1017.92 1017.91 1018.29 1018.22 1018.22 1018.31 1018.44 1018.53 1018.73 1018.76 1018.84 1019.22 1019.80 1020.21 1020.52 1020.72 1020.86 1020.66 1020.31 1020.32 1020.58
1012.92 1013.45 1013.78 1014.05 1014.44 1014.68 1015.05 1015.41 1015.67 1015.96 1016.16 1016.23 1016.38 1016.37 1016.44 1016.62 1016.74 1016.91 1017.32 1017.45 1017.57 1017.88 1017.88 1018.07 1018.14 1018.13 1018.26 1018.28 1018.42 1018.67 1018.84 1019.00 1019.09 1019.46 1020.10 1020.17 1020.27 1020.55 1020.82 1021.08 1020.66 1020.36 1020.56
1013.32 1013.50 1013.75 1014.01 1014.33 1014.75 1014.90 1015.59 1015.65 1016.25 1016.47 1016.56 1016.53 1016.58 1016.60 1016.63 1016.78 1016.99 1017.33 1017.59 1017.54 1017.92 1017.97 1018.11 1018.22 1018.25 1018.27 1018.42 1018.53 1018.66 1018.85 1019.08 1019.27 1019.57 1019.91 1020.04 1020.19 1020.49 1020.94 1020.77 1021.29 1021.09 1020.86
1013.46 1013.58 1013.73 1013.87 1014.19 1014.48 1014.85 1015.60 1016.34 1016.65 1016.85 1016.65 1016.59 1016.54 1016.69 1016.94 1016.95 1017.12 1017.41 1017.63 1017.66 1017.94 1017.94 1018.06 1018.17 1018.15 1018.14 1018.30 1018.41 1018.60 1018.77 1019.28 1019.41 1019.71 1020.03 1020.05 1020.08 1020.01 1020.27 1020.66 1021.23 1020.15 1021.07
1013.71 1013.67 1013.73 1013.85 1014.19 1014.87 1015.46 1016.02 1016.38 1016.26 1016.79 1016.94 1016.65 1016.60 1016.98 1017.06 1016.96 1017.13 1017.46 1017.64 1017.71 1017.72 1017.86 1018.08 1018.01 1018.07 1018.14 1018.29 1018.42 1018.55 1018.85 1019.12 1019.64 1019.83 1020.02 1020.17 1020.22 1020.13 1020.13 1020.55 1021.00 1021.12 1020.42
1013.81 1013.77 1013.75 1013.83 1014.60 1015.08 1015.65 1016.45 1016.46 1016.73 1016.71 1016.81 1016.78 1016.77 1017.06 1017.12 1017.28 1017.38 1017.61 1017.66 1017.73 1017.73 1018.04 1018.05 1018.16 1018.12 1018.10 1018.04 1018.31 1018.43 1018.58 1018.89 1019.29 1019.89 1019.99 1019.99 1020.06 1020.11 1020.08 1020.29 1020.65 1020.77 1020.61
1013.94 1014.13 1014.18 1014.22 1014.69 1015.27 1013.92 1016.38 1016.32 1016.56 1016.61 1016.59 1016.68 1016.84 1017.09 1017.19 1017.34 1017.63 1017.77 1017.60 1017.70 1017.88 1017.96 1017.93 1017.76 1017.69 1017.65 1017.67 1017.95 1018.13 1018.37 1018.68 1019.31 1019.65 1019.76 1019.89 1019.84 1019.93 1019.97 1020.06 1020.44 1020.87 1021.01
1014.37 1014.35 1014.43 1014.42 1014.82 1015.31 1015.75 1015.35 1016.10 1015.94 1016.21 1016.64 1016.85 1016.87 1017.22 1017.30 1017.53 1017.65 1017.85 1017.70 1017.60 1017.89 1017.76 1017.76 1017.55 1017.35 1017.51 1017.72 1017.90 1017.99 1018.39 1018.72 1019.20 1019.46 1019.68 1019.70 1019.75 1019.75 1019.74 1019.86 1020.17 1020.74 1020.98
1014.77 1014.82 1014.81 1014.86 1014.95 1015.14 1015.38 1015.67 1015.61 1015.89 1016.35 1016.56 1016.94 1017.11 1017.41 1017.65 1018.03 1017.98 1017.86 1017.79 1017.63 1017.63 1017.57 1017.49 1017.45 1017.56 1017.72 1018.01 1018.14 1018.22 1018.40 1018.84 1018.97 1019.19 1019.44 1019.62 1019.66 1019.67 1019.64 1019.74 1020.27 1020.59 1020.82
1015.00 1015.13 1015.14 1015.20 1015.36 1015.49 1015.63 1016.13 1016.18 1016.49 1016.80 1017.11 1017.29 1017.76 1017.79 1017.90 1018.12 1017.81 1017.89 1017.84 1017.67 1017.50 1017.55 1017.50 1017.33 1017.47 1017.74 1018.11 1018.31 1018.24 1018.48 1018.76 1018.92 1019.05 1019.28 1019.40 1019.48 1019.63 1019.50 1019.71 1020.13 1020.53 1020.80
1015.00 1015.27 1015.29 1015.49 1015.54 1015.77 1016.04 1016.39 1016.71 1017.04 1017.28 1017.38 1017.50 1017.80 1017.89 1018.09 1018.19 1018.13 1018.08 1018.15 1017.87 1017.58 1017.72 1017.65 1017.53 1017.57 1017.91 1018.12 1018.12 1018.13 1018.32 1018.61 1018.80 1018.95 1018.99 1019.05 1019.19 1019.29 1019.33 1019.68 1019.92 1020.24 1020.68
1014.87 1015.07 1015.18 1015.34 1015.67 1016.04 1016.44 1016.67 1016.98 1017.19 1017.41 1017.66 1017.71 1017.68 1017.90 1018.17 1018.40 1018.33 1018.14 1018.09 1017.97 1017.83 1017.93 1017.93 1017.89 1017.86 1017.89 1017.96 1018.07 1017.94 1018.07 1018.45 1018.66 1018.79 1018.82 1018.75 1018.74 1018.97 1019.03 1019.32 1019.77 1020.01 1020.45
1014.66 1014.83 1015.01 1015.23 1015.65 1015.96 1016.44 1016.82 1017.08 1017.15 1017.32 1017.58 1017.78 1017.59 1017.91 1018.10 1018.35 1018.33 1018.04 1018.03 1017.99 1017.89 1017.95 1017.99 1018.02 1017.94 1017.83 1017.89 1017.91 1017.87 1017.84 1018.16 1018.33 1018.57 1018.54 1018.63 1018.55 1018.76 1019.01 1019.25 1019.55 1019.92 1020.24
1014.18 1014.51 1014.98 1015.35 1015.60 1016.02 1016.49 1016.79 1016.99 1017.10 1017.46 1017.59 1017.67 1017.75 1017.82 1018.17 1018.40 1018.17 1018.00 1017.88 1017.78 1017.83 1017.85 1017.82 1017.97 1017.87 1018.00 1017.98 1017.88 1017.88 1017.92 1018.00 1017.99 1018.22 1018.47 1018.53 1018.73 1018.82 1019.15 1019.36 1019.50 1019.81 1020.09
1013.83 1014.23 1014.81 1015.26 1015.50 1015.87 1016.42 1016.64 1016.98 1017.16 1017.35 1017.51 1017.63 1017.63 1017.79 1018.12 1018.23 1017.98 1017.85 1017.74 1017.59 1017.77 1017.87 1018.01 1018.16 1018.25 1018.43 1018.04 1018.02 1017.94 1018.03 1018.02 1017.97 1017.95 1018.34 1018.61 1018.76 1019.00 1019.21 1019.31 1019.51 1019.66 1019.97
1013.57 1014.01 1014.52 1015.15 1015.58 1015.92 1016.29 1016.54 1016.89 1017.03 1017.28 1017.48 1017.65 1017.78 1017.79 1017.82 1017.87 1017.85 1017.66 1017.53 1017.39 1017.68 1017.93 1018.20 1018.51 1018.74 1018.47 1018.31 1018.26 1018.05 1017.97 1017.87 1017.99 1018.20 1018.32 1018.56 1018.86 1019.07 1019.15 1019.21 1019.34 1019.55 1019.93
1013.17 1013.79 1014.41 1014.80 1015.22 1015.80 1016.25 1016.53 1016.74 1017.06 1017.41 1017.43 1017.53 1017.68 1017.66 1017.66 1017.61 1017.69 1017.50 1017.33 1017.32 1017.67 1017.99 1018.47 1018.83 1018.76 1018.74 1018.80 1018.64 1018.38 1018.21 1018.12 1018.20 1018.32 1018.46 1018.47 1018.86 1018.99 1019.07 1019.11 1019.14 1019.44 1019.73
1012.96 1013.57 1014.04 1014.65 1015.16 1015.79 1016.21 1016.57 1016.83 1017.14 1017.48 1017.50 1017.41 1017.60 1017.61 1017.56 1017.54 1017.54 1017.45 1017.38 1017.45 1017.75 1018.00 1018.30 1018.65 1018.95 1019.10 1019.29 1018.95 1018.70 1018.51 1018.49 1018.44 1018.68 1018.60 1018.60 1018.79 1018.88 1019.01 1019.06 1019.09 1019.31 1019.61
1012.74 1013.42 1013.95 1014.53 1015.11 1015.71 1016.23 1016.53 1016.93 1017.09 1017.30 1017.33 1017.28 1017.25 1017.34 1017.40 1017.31 1017.46 1017.32 1017.42 1017.60 1017.83 1018.09 1018.26 1018.67 1018.96 1019.24 1019.35 1019.20 1018.97 1018.87 1018.79 1018.73 1018.68 1018.67 1018.80 1018.71 1018.83 1018.90 1019.05 1019.13 1019.28 1019.62
1012.33 1013.04 1013.68 1014.40 1014.96 1015.45 1015.91 1016.12 1016.33 1016.73 1016.97 1016.95 1016.93 1016.98 1017.04 1017.11 1017.13 1017.33 1017.33 1017.51 1017.75 1018.07 1018.20 1018.50 1018.86 1019.02 1019.21 1019.45 1019.46 1019.65 1019.38 1019.14 1018.81 1018.72 1018.65 1018.80 1018.86 1018.79 1018.79 1018.96 1019.03 1019.04 1019.38
1011.99 1012.73 1013.39 1013.98 1014.68 1015.18 1015.70 1016.09 1016.33 1016.56 1016.86 1016.93 1016.94 1016.90 1016.63 1016.61 1016.82 1017.04 1017.31 1017.66 1017.79 1018.01 1018.19 1018.65 1018.82 1018.81 1019.19 1019.38 1019.34 1019.35 1019.72 1019.50 1019.35 1018.94 1018.60 1018.67 1018.81 1018.76 1018.64 1018.67 1018.78 1018.91 1019.10
1011.36 1012.20 1013.07 1013.66 1014.32 1014.98 1015.40 1015.86 1016.02 1016.16 1016.56 1016.48 1016.55 1016.65 1016.57 1016.45 1016.65 1016.89 1017.18 1017.59 1017.65 1017.82 1018.05 1018.29 1018.45 1018.68 1018.80 1019.15 1019.24 1019.27 1019.27 1019.26 1019.36 1019.16 1018.87 1018.74 1018.78 1018.72 1018.55 1018.39 1018.54 1018.76 1018.95
1011.09 1011.84 1012.45 1013.30 1014.12 1014.60 1015.12 1015.37 1015.81 1016.18 1016.16 1016.18 1016.42 1016.63 1016.66 1016.57 1016.61 1016.75 1017.08 1017.36 1017.59 1017.66 1017.97 1018.11 1018.39 1018.38 1018.51 1018.79 1018.87 1019.14 1019.17 1019.29 1019.35 1019.19 1019.00 1018.92 1018.84 1018.54 1018.40 1018.28 1018.23 1018.32 1018.47
1010.98 1011.62 1012.16 1013.00 1013.74 1014.14 1014.77 1015.09 1015.47 1015.83 1016.06 1016.34 1016.33 1016.51 1016.62 1016.71 1016.79 1016.84 1016.95 1017.25 1017.43 1017.62 1017.73 1017.81 1017.98 1018.23 1018.32 1018.50 1018.62 1018.96 1019.02 1019.07 1019.19 1019.20 1019.34 1019.18 1019.04 1018.53 1018.42 1018.36 1018.22 1018.18 1018.18
Thickness
5777 5777 5775 5773 5772 5770 5769 5768 5767 5766 5765 5762 5760 5760 5760 5760 5759 5756 5754 5752 5750 5747 5745 5744 5741 5740 5738 5737 5737 5738 5737 5735 5732 5727 5721 5713 5712 5715 5719 5723 5725 5726 5727
5781 5778 5775 5773 5770 5769 5768 5765 5764 5762 5762 5760 5756 5756 5757 5758 5757 5754 5753 5749 5748 5746 5744 5743 5741 5739 5737 5737 5737 5736 5734 5732 5729 5725 5721 5715 5711 5708 5708 5714 5720 5722 5724
5780 5776 5774 5772 5768 5767 5765 5763 5761 5759 5758 5757 5755 5754 5755 5755 5756 5752 5751 5748 5746 5744 5743 5742 5738 5738 5739 5738 5736 5736 5734 5732 5729 5725 5719 5716 5713 5710 5710 5708 5712 5716 5718
5778 5774 5772 5770 5766 5764 5762 5759 5756 5755 5754 5754 5753 5753 5755 5754 5753 5751 5748 5747 5746 5744 5744 5742 5740 5740 5738 5738 5737 5735 5732 5729 5727 5724 5718 5717 5713 5709 5709 5708 5712 5713 5716
5775 5772 5770 5768 5764 5762 5762 5755 5750 5749 5749 5749 5751 5752 5754 5754 5753 5750 5748 5747 5746 5745 5744 5742 5740 5738 5738 5736 5735 5734 5731 5727 5725 5721 5717 5717 5713 5709 5707 5712 5703 5705 5709
5772 5771 5769 5768 5766 5764 5762 5755 5749 5745 5745 5748 5752 5752 5753 5750 5750 5749 5749 5747 5747 5745 5746 5743 5742 5740 5739 5738 5737 5735 5730 5725 5723 5720 5715 5714 5714 5712 5711 5712 5698 5700 5714
5770 5769 5768 5768 5767 5759 5754 5751 5747 5745 5745 5745 5750 5752 5750 5749 5749 5749 5750 5748 5749 5749 5748 5744 5744 5742 5741 5738 5736 5734 5730 5725 5720 5717 5714 5712 5712 5711 5712 5711 5711 5714 5726
5767 5768 5768 5767 5758 5755 5750 5744 5745 5746 5746 5746 5747 5750 5748 5748 5748 5748 5750 5748 5749 5749 5746 5744 5743 5742 5740 5739 5736 5734 5730 5726 5722 5717 5714 5714 5712 5710 5713 5713 5714 5717 5721
5764 5764 5764 5764 5757 5750 5746 5745 5746 5745 5745 5747 5747 5749 5746 5747 5747 5746 5748 5749 5749 5748 5747 5746 5747 5746 5745 5743 5739 5736 5732 5729 5723 5718 5715 5714 5714 5712 5712 5715 5715 5713 5715
5760 5761 5761 5761 5757 5752 5749 5738 5744 5750 5749 5746 5746 5748 5746 5746 5745 5745 5747 5748 5751 5749 5749 5748 5750 5751 5748 5745 5741 5738 5734 5728 5724 5719 5717 5716 5716 5717 5716 5718 5716 5714 5716
5756 5757 5757 5757 5757 5755 5753 5750 5751 5751 5747 5744 5743 5744 5744 5744 5743 5746 5748 5749 5752 5752 5751 5752 5753 5751 5747 5744 5741 5739 5735 5730 5725 5722 5720 5719 5719 5720 5720 5721 5718 5716 5717
5751 5753 5754 5752 5752 5751 5750 5746 5746 5745 5742 5740 5740 5738 5740 5742 5742 5747 5749 5749 5752 5753 5752 5753 5755 5752 5750 5748 5745 5743 5739 5734 5730 5727 5724 5724 5725 5724 5724 5724 5722 5719 5718
5751 5751 5751 5750 5748 5747 5745 5743 5740 5738 5736 5736 5737 5737 5739 5740 5742 5745 5748 5750 5753 5754 5752 5754 5756 5756 5753 5750 5749 5748 5743 5739 5735 5732 5731 5731 5731 5731 5730 5727 5727 5726 5723
5750 5750 5752 5749 5748 5745 5741 5739 5737 5735 5734 5733 5735 5738 5740 5740 5741 5744 5749 5751 5753 5754 5751 5754 5756 5757 5757 5755 5753 5752 5749 5743 5740 5737 5737 5737 5739 5736 5736 5734 5731 5732 5729
5750 5751 5751 5751 5747 5745 5741 5737 5734 5733 5732 5732 5735 5738 5739 5739 5741 5744 5750 5752 5754 5755 5754 5754 5755 5758 5759 5758 5757 5755 5754 5749 5745 5742 5743 5741 5742 5741 5740 5738 5736 5735 5734
5753 5752 5751 5748 5744 5742 5739 5735 5733 5731 5729 5731 5734 5736 5738 5739 5740 5745 5749 5753 5757 5757 5755 5754 5757 5760 5760 5759 5759 5757 5756 5752 5750 5748 5746 5745 5743 5742 5741 5740 5740 5739 5738
5755 5754 5751 5748 5744 5743 5739 5736 5733 5731 5730 5731 5732 5736 5737 5737 5740 5746 5751 5755 5759 5757 5756 5756 5757 5759 5759 5760 5761 5760 5757 5755 5753 5752 5750 5746 5745 5743 5743 5744 5744 5744 5741
5756 5755 5752 5748 5744 5742 5740 5738 5734 5732 5731 5731 5733 5735 5737 5739 5743 5748 5753 5757 5760 5758 5756 5756 5755 5755 5759 5760 5761 5762 5761 5759 5756 5753 5752 5749 5747 5745 5747 5750 5749 5748 5746
5758 5755 5752 5750 5747 5742 5740 5738 5735 5733 5731 5733 5735 5736 5740 5742 5745 5748 5754 5758 5760 5758 5758 5756 5754 5756 5757 5755 5758 5762 5762 5761 5757 5755 5754 5753 5751 5750 5751 5754 5755 5753 5752
5760 5757 5753 5750 5746 5743 5741 5739 5737 5735 5731 5733 5737 5738 5741 5744 5746 5749 5753 5757 5758 5758 5758 5758 5756 5754 5754 5753 5756 5760 5762 5761 5759 5757 5756 5756 5755 5757 5757 5758 5759 5758 5756
5762 5756 5753 5749 5746 5742 5740 5739 5736 5735 5734 5736 5738 5742 5743 5745 5749 5750 5754 5755 5755 5755 5758 5759 5757 5754 5751 5752 5753 5757 5759 5759 5760 5760 5760 5759 5760 5761 5762 5762 5761 5761 5758
5765 5758 5754 5748 5745 5744 5743 5743 5743 5740 5739 5741 5743 5744 5746 5748 5750 5751 5753 5755 5753 5755 5758 5757 5755 5753 5751 5752 5751 5749 5749 5754 5759 5763 5764 5762 5763 5763 5764 5764 5764 5764 5760
5767 5760 5755 5751 5747 5745 5743 5742 5742 5741 5740 5742 5743 5745 5749 5752 5752 5753 5753 5752 5754 5755 5755 5754 5754 5754 5750 5752 5753 5752 5745 5746 5749 5759 5765 5766 5764 5766 5767 5768 5768 5767 5765
5773 5766 5757 5754 5750 5745 5743 5741 5741 5741 5739 5745 5746 5747 5749 5753 5754 5753 5753 5753 5755 5755 5754 5756 5756 5754 5754 5751 5753 5755 5756 5755 5750 5751 5761 5763 5766 5767 5769 5771 5770 5769 5768
5777 5770 5763 5757 5751 5747 5744 5744 5741 5739 5743 5746 5747 5745 5747 5751 5753 5753 5753 5752 5754 5754 5754 5755 5754 5756 5757 5754 5755 5753 5754 5753 5754 5753 5753 5758 5764 5769 5772 5772 5772 5773 5773
5776 5772 5766 5759 5753 5750 5746 5745 5743 5741 5741 5741 5744 5744 5746 5748 5750 5752 5752 5753 5753 5753 5754 5756 5756 5755 5757 5758 5758 5755 5753 5753 5752 5751 5750 5754 5757 5766 5770 5771 5773 5774 5774